Location: State Camp
(41.2367°N, 77.7828°W)
Time: 03:50:54
(UTC-04:00)

ADEOS Rocket - Visible Passes

Search period start: 24 April 2014 00:00
Search period end: 04 May 2014 00:00
Orbit: 860 x 1307 km, 98.8° (Epoch: 22 April)

Date Brightness Start Highest point End Pass type
(mag) Time Alt. Az. Time Alt. Az. Time Alt. Az.
24 Apr 3.3 22:26:25 43° E 22:27:24 46° ENE 22:33:29 10° N visible
25 Apr 4.5 00:13:22 26° W 00:13:22 26° W 00:18:23 10° NW visible
25 Apr 4.5 21:36:46 17° E 21:39:09 21° ENE 21:43:45 10° NNE visible
25 Apr 3.1 23:23:43 64° WSW 23:23:57 65° W 23:30:22 10° NNW visible
26 Apr 3.2 22:34:05 49° ESE 22:35:10 55° ENE 22:41:30 10° N visible
27 Apr 4.6 00:21:02 23° W 00:21:10 23° W 00:26:02 10° NW visible
27 Apr 4.3 21:44:27 20° E 21:46:51 25° ENE 21:51:57 10° N visible
27 Apr 3.3 23:31:24 54° WSW 23:31:49 56° W 23:38:14 10° NNW visible
28 Apr 5.1 20:57:21 10° ENE 20:58:57 11° NE 21:00:35 10° NE visible
28 Apr 3.1 22:41:47 54° ESE 22:42:57 64° ENE 22:49:30 10° N visible
29 Apr 4.8 00:28:44 19° W 00:29:08 19° W 00:33:37 10° NW visible
29 Apr 4.2 21:52:09 22° E 21:54:34 29° ENE 22:00:07 10° N visible
29 Apr 3.6 23:39:06 46° WSW 23:39:42 48° W 23:46:05 10° NNW visible
30 Apr 5.0 21:03:48 10° ENE 21:06:36 13° NE 21:09:31 10° NNE visible
30 Apr 3.0 22:49:28 57° SE 22:50:45 75° ENE 22:57:29 10° N visible
01 May 5.0 00:36:25 16° W 00:37:08 17° W 00:41:07 10° NW visible
01 May 4.0 21:59:50 25° ESE 22:02:18 34° ENE 22:08:14 10° N visible
01 May 3.8 23:46:48 39° WSW 23:47:37 41° W 23:53:55 10° NNW visible
02 May 4.9 21:10:41 10° E 21:14:16 16° NE 21:18:03 10° NNE visible
02 May 3.0 22:57:10 58° SSE 22:58:35 86° ENE 23:05:27 10° NNW visible
03 May 5.2 00:44:07 14° W 00:45:08 14° W 00:48:29 10° NW visible
03 May 3.9 22:07:33 28° ESE 22:10:03 39° ENE 22:16:20 10° N visible
03 May 4.1 23:54:30 34° WSW 23:55:33 36° W 00:00:00 17° NW visible
